Canton, GA

8:54 AM EST on December 15, 2019 (GMT -0500)
Canton

Weather History for KCNI - November, 2019

Change the Weather History Date:

Tuesday, November 12, 2019

  Actual Average (WUND) Record (WUND)
Temperature  
Mean Temperature 40 °F -  
Max Temperature 55 °F - - (-1)
Min Temperature 26 °F - - (-1)
Degree Days  
Heating Degree Days 24    
Moisture  
Dew Point 33 °F    
Average Humidity 81    
Maximum Humidity 100    
Minimum Humidity 64    
Precipitation  
Precipitation 0.00 in - - ()
Sea Level Pressure  
Sea Level Pressure 30.10 in    
Wind  
Wind Speed 7 mph (NW)    
Max Wind Speed 21 mph    
Max Gust Speed 30 mph    
Visibility 9 miles    
Events Rain    
Averages and records for this station are not official NWS values.
T = Trace of Precipitation, MM = Missing Value Source: NWS Daily Summary

Daily Weather History Graph

Daily Weather History Graph

Search for Another Location

Airport or City:

Astronomy

Nov. 12, 2019 Rise Set
Actual Time 7:07 AM EST 5:35 PM EST
Civil Twilight 6:41 AM EST 6:02 PM EST
Nautical Twilight 6:11 AM EST 6:32 PM EST
Astronomical Twilight 5:41 AM EST 7:01 PM EST
Moon 6:00 PM EST (11/12) 7:00 AM EST (11/12)
Length of Visible Light 11h 20m
Length of Day
10h 27m
Full, 100% of the Moon is Illuminated
Nov 12
Full
Nov 19
Last Quarter
Nov 26
New
Dec 4
First Quarter
Dec 12
Full

Hourly Weather History & Observations

Time (EST) Temp. Windchill Dew Point Humidity Pressure Visibility Wind Dir Wind Speed Gust Speed Precip Events Conditions
12:10 AM 55.4 °F - 51.8 °F 88% 30.01 in 10.0 mi Calm Calm - N/A Rain Light Rain
12:30 AM 53.6 °F - 51.8 °F 94% 30.01 in 10.0 mi Calm Calm - N/A Rain Rain
12:50 AM 53.6 °F - 51.8 °F 94% 30.00 in 7.0 mi Calm Calm - N/A Rain Light Rain
1:10 AM 53.6 °F - 53.6 °F 100% 29.99 in 5.0 mi Calm Calm - N/A Rain Rain
1:30 AM 53.6 °F - 53.6 °F 100% 29.98 in 1.2 mi Calm Calm - N/A Rain Rain
1:50 AM 53.6 °F - 53.6 °F 100% 29.96 in 5.0 mi Calm Calm - N/A Rain Light Rain
2:10 AM 53.6 °F - 53.6 °F 100% 29.95 in 0.5 mi Calm Calm - N/A Rain Rain
2:30 AM 53.6 °F - 53.6 °F 100% 29.95 in 1.0 mi Calm Calm - N/A Rain Rain
2:50 AM 53.6 °F - 53.6 °F 100% 29.94 in 0.8 mi NW 3.5 mph - N/A Rain Rain
3:10 AM 53.6 °F - 53.6 °F 100% 29.93 in 4.0 mi WNW 5.8 mph - N/A Rain Rain
3:30 AM 53.6 °F - 53.6 °F 100% 29.91 in 7.0 mi Calm Calm - N/A Rain Rain
3:50 AM 53.6 °F - 53.6 °F 100% 29.91 in 4.0 mi WNW 8.1 mph - N/A   Drizzle
4:10 AM 48.2 °F - 48.2 °F 100% 29.93 in 5.0 mi WNW 15.0 mph 26.5 mph N/A Rain Light Rain
4:30 AM 44.6 °F 37.4 °F 44.6 °F 100% 29.94 in 5.0 mi WNW 16.1 mph 29.9 mph N/A Rain Rain
4:50 AM 44.6 °F 38.8 °F 44.6 °F 100% 29.95 in 5.0 mi NW 11.5 mph 17.3 mph N/A Rain Rain
5:50 AM 42.8 °F 37.0 °F 42.8 °F 100% 29.98 in 10.0 mi NW 10.4 mph 20.7 mph N/A Rain Light Rain
6:10 AM 41.0 °F 33.5 °F 41.0 °F 100% 29.99 in 10.0 mi NW 13.8 mph 18.4 mph N/A Rain Rain
6:30 AM 41.0 °F 33.5 °F 39.2 °F 93% 29.99 in 10.0 mi NW 13.8 mph 19.6 mph N/A Rain Light Rain
6:50 AM 39.2 °F 32.5 °F 39.2 °F 100% 30.01 in 5.0 mi WNW 10.4 mph 17.3 mph N/A Rain Rain
7:10 AM 37.4 °F 29.3 °F 37.4 °F 100% 30.00 in 7.0 mi NW 12.7 mph 18.4 mph N/A Rain Rain
7:30 AM 37.4 °F 29.3 °F 37.4 °F 100% 30.01 in 10.0 mi NW 12.7 mph 24.2 mph N/A Rain Light Rain
7:50 AM 37.4 °F 29.8 °F 37.4 °F 100% 30.02 in 10.0 mi NW 11.5 mph 23.0 mph N/A   Overcast
8:10 AM 37.4 °F 29.8 °F 35.6 °F 93% 30.04 in 10.0 mi NW 11.5 mph 25.3 mph N/A   Overcast
8:30 AM 37.4 °F 28.5 °F 33.8 °F 87% 30.04 in 10.0 mi NW 15.0 mph 24.2 mph N/A   Overcast
8:50 AM 37.4 °F 29.3 °F 32.0 °F 81% 30.05 in 10.0 mi NW 12.7 mph 26.5 mph N/A   Overcast
9:10 AM 37.4 °F 30.3 °F 33.8 °F 87% 30.06 in 10.0 mi NW 10.4 mph 21.9 mph N/A   Overcast
9:50 AM 37.4 °F 28.9 °F 33.8 °F 87% 30.08 in 10.0 mi NW 13.8 mph 21.9 mph N/A   Overcast
10:10 AM 37.4 °F 28.2 °F 33.8 °F 87% 30.08 in 10.0 mi WNW 16.1 mph 23.0 mph N/A   Overcast
10:30 AM 37.4 °F 29.8 °F 32.0 °F 81% 30.10 in 10.0 mi NW 11.5 mph 21.9 mph N/A   Overcast
10:50 AM 37.4 °F 30.3 °F 32.0 °F 81% 30.10 in 10.0 mi NW 10.4 mph 19.6 mph N/A   Overcast
11:10 AM 37.4 °F 30.3 °F 32.0 °F 81% 30.11 in 10.0 mi NW 10.4 mph 19.6 mph N/A   Overcast
11:30 AM 37.4 °F 29.3 °F 32.0 °F 81% 30.11 in 10.0 mi NW 12.7 mph 21.9 mph N/A   Overcast
11:50 AM 37.4 °F 28.5 °F 30.2 °F 75% 30.11 in 10.0 mi NW 15.0 mph 28.8 mph N/A   Overcast
12:10 PM 37.4 °F 30.8 °F 30.2 °F 75% 30.11 in 10.0 mi NNW 9.2 mph 23.0 mph N/A   Overcast
12:30 PM 37.4 °F 26.9 °F 30.2 °F 75% 30.11 in 10.0 mi NW 20.7 mph 28.8 mph N/A   Overcast
1:10 PM 37.4 °F 28.2 °F 28.4 °F 70% 30.11 in 10.0 mi NW 16.1 mph 26.5 mph N/A   Overcast
1:30 PM 37.4 °F 28.9 °F 28.4 °F 70% 30.12 in 10.0 mi NW 13.8 mph 23.0 mph N/A   Overcast
1:50 PM 37.4 °F 27.5 °F 26.6 °F 65% 30.11 in 10.0 mi NW 18.4 mph 26.5 mph N/A   Overcast
2:10 PM 37.4 °F 27.8 °F 26.6 °F 65% 30.12 in 10.0 mi NW 17.3 mph 26.5 mph N/A   Scattered Clouds
2:30 PM 37.4 °F 30.3 °F 26.6 °F 65% 30.13 in 10.0 mi NW 10.4 mph 23.0 mph N/A   Mostly Cloudy
2:50 PM 37.4 °F 28.5 °F 26.6 °F 65% 30.13 in 10.0 mi NNW 15.0 mph 23.0 mph N/A   Mostly Cloudy
3:10 PM 35.6 °F 27.5 °F 26.6 °F 70% 30.13 in 10.0 mi NNW 11.5 mph 21.9 mph N/A   Scattered Clouds
3:30 PM 35.6 °F 28.0 °F 26.6 °F 70% 30.13 in 10.0 mi NNW 10.4 mph 20.7 mph N/A   Scattered Clouds
3:50 PM 35.6 °F 27.5 °F 24.8 °F 65% 30.14 in 10.0 mi NNW 11.5 mph 19.6 mph N/A   Clear
4:10 PM 33.8 °F 27.0 °F 24.8 °F 70% 30.16 in 10.0 mi NNW 8.1 mph - N/A   Clear
4:30 PM 33.8 °F 26.4 °F 23.0 °F 65% 30.16 in 10.0 mi NW 9.2 mph - N/A   Clear
4:50 PM 33.8 °F 26.4 °F 23.0 °F 65% 30.16 in 10.0 mi NNW 9.2 mph 17.3 mph N/A   Clear
5:10 PM 32.0 °F 25.6 °F 23.0 °F 69% 30.18 in 10.0 mi NNW 6.9 mph - N/A   Clear
5:30 PM 32.0 °F 25.6 °F 23.0 °F 69% 30.19 in 10.0 mi NW 6.9 mph - N/A   Clear
5:50 PM 32.0 °F 23.0 °F 21.2 °F 64% 30.19 in 10.0 mi NW 11.5 mph 19.6 mph N/A   Clear
6:30 PM 30.2 °F 21.9 °F 21.2 °F 69% 30.20 in 10.0 mi NNW 9.2 mph 19.6 mph N/A   Clear
6:50 PM 30.2 °F 26.7 °F 21.2 °F 69% 30.21 in 10.0 mi NW 3.5 mph - N/A   Clear
7:10 PM 30.2 °F 23.4 °F 21.2 °F 69% 30.21 in 10.0 mi NW 6.9 mph - N/A   Clear
7:30 PM 30.2 °F 22.6 °F 21.2 °F 69% 30.22 in 10.0 mi NW 8.1 mph 17.3 mph N/A   Clear
8:10 PM 30.2 °F 21.9 °F 19.4 °F 64% 30.23 in 10.0 mi NW 9.2 mph - N/A   Clear
8:30 PM 28.4 °F 21.2 °F 19.4 °F 69% 30.23 in 10.0 mi NW 6.9 mph - N/A   Clear
8:50 PM 28.4 °F 21.2 °F 19.4 °F 69% 30.24 in 10.0 mi NW 6.9 mph - N/A   Clear
9:10 PM 28.4 °F 21.2 °F 19.4 °F 69% 30.25 in 10.0 mi NNW 6.9 mph 16.1 mph N/A   Clear
9:30 PM 28.4 °F 18.5 °F 19.4 °F 69% 30.25 in 10.0 mi NW 11.5 mph 17.3 mph N/A   Clear
9:50 PM 28.4 °F 22.2 °F 17.6 °F 64% 30.26 in 10.0 mi NNW 5.8 mph - N/A   Clear
10:10 PM 26.6 °F 19.1 °F 17.6 °F 69% 30.26 in 10.0 mi NW 6.9 mph - N/A   Clear
10:30 PM 26.6 °F 17.5 °F 17.6 °F 69% 30.26 in 10.0 mi NW 9.2 mph - N/A   Clear
10:50 PM 26.6 °F 16.8 °F 17.6 °F 69% 30.26 in 10.0 mi NW 10.4 mph 17.3 mph N/A   Clear
11:10 PM 26.6 °F 16.2 °F 17.6 °F 69% 30.26 in 10.0 mi NW 11.5 mph - N/A   Clear
11:30 PM 26.6 °F 16.8 °F 17.6 °F 69% 30.25 in 10.0 mi NW 10.4 mph 17.3 mph N/A   Clear
11:50 PM 26.6 °F 17.5 °F 17.6 °F 69% 30.25 in 10.0 mi NW 9.2 mph - N/A   Clear